Lapse_Rate
6.7 6.5 6.5 6.5 6.5 6.5 6.5 6.5 6.5 6.5 6.5 6.5 6.5 6.5 6.5 6.7 6.9 6.8 7.0 7.1 7.2 6.0 5.8 4.4 1.6 0.0 -0.1 0.0 0.8 1.2 2.0 2.2 2.0 2.2 2.7 4.2 4.9 5.1 5.1 5.1 4.8 4.7 4.4 4.2
6.5 6.5 6.5 6.5 6.5 6.5 6.5 6.5 6.5 6.5 6.5 6.5 6.5 6.5 6.5 6.5 6.5 6.9 7.0 7.1 7.1 6.1 5.4 4.8 2.6 -1.1 -1.7 -0.2 1.1 0.7 2.3 1.8 2.7 2.8 2.7 5.0 5.7 5.2 5.4 5.2 5.6 5.2 4.7 4.4
6.5 6.5 6.5 6.5 6.5 6.5 6.5 6.5 6.5 6.5 6.5 6.5 6.5 6.5 6.5 6.5 6.7 7.0 7.2 7.2 7.3 7.2 6.6 5.8 4.4 1.0 -1.5 -0.4 0.0 0.3 1.3 1.6 2.6 3.6 3.4 3.6 5.9 5.5 5.7 5.4 5.3 4.7 4.5 4.6
6.5 6.5 6.5 6.5 6.5 6.5 6.5 6.5 6.5 6.5 6.5 6.5 6.5 6.5 6.5 6.5 6.5 6.5 6.8 7.1 7.1 6.9 5.4 4.7 4.5 2.3 -0.6 -0.2 0.9 1.6 1.8 2.1 2.2 2.4 3.1 3.9 6.2 6.8 6.2 5.6 5.3 4.4 4.3 4.3
6.5 6.5 6.5 6.5 6.5 6.5 6.5 6.5 6.5 6.5 6.5 6.5 6.5 6.5 6.5 6.5 6.5 6.5 6.5 7.0 7.3 7.3 5.6 4.0 4.6 3.7 1.7 0.2 -0.0 1.0 3.2 2.6 1.6 2.2 2.7 3.8 6.0 6.9 6.2 5.8 5.4 5.1 4.5 3.9
6.5 6.8 6.5 6.5 6.5 6.5 6.5 6.5 6.5 6.5 6.5 6.5 6.5 6.5 6.5 6.5 6.5 6.5 6.5 7.0 7.3 7.2 5.2 4.9 3.9 3.3 2.6 1.8 0.6 2.7 3.9 2.3 1.9 3.0 3.2 4.7 6.3 6.6 6.2 5.9 5.7 5.0 4.1 3.4
6.5 6.5 6.5 6.5 6.5 6.5 6.5 6.5 6.5 6.5 6.5 6.5 6.5 6.5 6.5 6.5 6.5 6.5 6.5 6.9 7.3 7.4 5.9 5.2 4.5 4.3 3.9 2.2 2.4 3.7 4.0 2.2 2.7 4.0 5.3 5.8 6.3 5.9 7.0 6.3 5.3 4.3 4.0 3.1
6.5 6.5 6.5 6.5 6.5 6.5 6.5 6.5 6.5 6.5 6.5 6.5 6.5 6.5 6.5 6.5 6.6 7.0 7.1 7.3 7.4 7.4 7.1 6.0 5.0 4.7 5.1 3.6 4.1 4.2 3.8 3.0 3.3 4.7 5.9 6.5 6.6 6.4 6.6 5.7 5.6 4.4 4.4 3.8
6.5 6.5 6.5 6.5 6.5 6.5 6.5 6.5 6.5 6.5 6.5 6.5 6.5 6.5 6.5 6.5 6.5 6.5 6.7 7.1 7.2 7.4 7.5 7.5 5.5 5.6 6.0 6.0 5.5 5.1 4.3 4.3 3.4 5.0 5.3 6.2 6.0 6.1 5.7 5.4 5.5 5.2 5.0 4.5
6.5 6.5 6.5 6.5 6.5 6.5 6.5 6.5 6.5 6.5 6.5 6.5 6.5 6.5 6.5 6.5 6.5 6.5 6.5 6.7 7.2 7.5 7.6 7.7 7.2 6.4 7.0 6.3 5.9 5.3 5.6 5.1 3.8 4.9 4.4 6.0 5.5 6.0 5.7 4.8 5.3 5.0 4.8 4.6
6.5 6.5 6.5 6.5 6.5 6.5 6.5 6.5 6.5 6.5 6.5 6.5 6.5 6.5 6.5 6.5 6.5 6.5 6.5 7.0 7.3 7.5 7.7 7.6 7.0 6.1 6.0 5.9 6.1 5.8 5.5 5.8 4.6 5.6 4.8 5.2 5.2 5.9 5.3 4.9 4.8 4.9 4.7 4.6
6.5 6.5 6.5 6.5 6.5 6.5 6.5 6.5 6.5 6.5 6.5 6.5 6.5 6.5 6.5 6.5 6.5 6.5 6.7 7.1 7.5 7.6 7.7 7.9 6.6 6.6 5.9 5.9 6.1 5.6 5.0 5.6 6.1 5.3 4.9 4.6 5.5 5.7 5.9 5.1 5.0 4.5 4.5 4.6
6.5 6.5 6.5 6.5 6.5 6.5 6.5 6.5 6.5 6.5 6.5 6.5 6.5 6.5 6.5 6.5 6.5 6.8 6.8 7.2 7.4 7.6 7.6 7.5 6.3 6.4 6.0 6.1 6.1 5.8 5.6 5.8 5.8 5.4 5.1 4.2 5.4 5.7 5.5 5.5 4.9 4.5 4.5 4.3
6.7 6.5 6.5 6.5 6.5 6.5 6.5 6.5 6.5 6.5 6.5 6.5 6.5 6.5 6.5 6.5 6.5 6.5 6.9 7.3 7.4 7.5 7.5 7.4 6.7 6.4 5.9 5.0 5.7 5.9 6.2 6.8 7.1 6.1 4.9 3.5 5.5 6.1 5.3 5.0 4.7 4.8 4.7 4.9
6.5 6.5 6.5 6.5 6.5 6.5 6.5 6.5 6.5 6.5 6.5 6.5 6.5 6.5 6.5 6.5 6.5 6.6 7.1 7.3 7.3 7.4 7.4 6.5 5.4 4.6 4.8 4.4 4.6 4.4 5.3 6.2 6.8 7.0 5.8 4.5 5.1 5.7 5.4 5.0 4.8 4.8 4.7 4.7
6.5 6.5 6.5 6.5 6.5 6.5 6.5 6.5 6.5 6.5 6.5 6.5 6.5 6.5 6.5 6.6 7.0 6.8 7.0 7.2 7.2 7.4 7.6 7.6 6.9 5.1 3.2 3.7 3.8 4.5 4.0 4.1 5.3 6.5 5.9 5.9 5.3 5.6 5.8 5.5 5.0 4.8 4.8 4.8
6.5 6.5 6.5 6.5 6.5 6.5 6.5 6.5 6.5 6.5 6.5 6.5 6.5 6.5 6.5 6.5 6.5 6.7 7.0 7.2 7.3 7.5 7.6 6.9 6.2 4.7 3.0 1.7 1.9 3.1 3.9 3.9 4.0 5.6 5.8 5.7 5.8 6.1 5.4 5.8 5.7 5.2 5.1 4.7
6.5 6.5 6.5 6.5 6.5 6.5 6.5 6.5 6.5 6.5 6.5 6.5 6.5 6.5 6.5 6.6 7.1 7.4 7.6 7.4 7.3 6.7 6.8 6.1 6.0 3.9 3.1 2.9 2.6 5.1 4.9 3.1 3.4 2.7 4.0 5.4 5.6 5.6 5.9 6.0 5.8 5.9 5.5 5.2
6.5 6.5 6.5 6.5 6.5 6.5 6.5 6.5 6.5 6.5 6.5 6.5 6.5 6.5 6.6 7.1 7.2 7.0 7.6 7.1 7.0 5.6 5.0 5.0 5.5 3.9 3.5 1.4 1.8 6.1 3.3 2.5 2.9 1.0 1.4 1.5 2.2 5.5 5.5 5.2 5.2 5.6 5.2 5.2
6.5 6.5 6.5 6.5 6.5 6.5 6.5 6.5 6.7 6.5 6.5 6.5 6.5 6.5 6.5 6.8 6.5 6.5 5.6 5.3 4.6 4.1 3.9 4.1 3.6 3.4 2.5 2.1 2.7 1.2 0.5 1.5 1.6 0.8 0.3 0.8 0.1 1.2 4.6 5.2 4.8 3.8 4.0 3.6
6.5 6.5 6.5 6.5 6.5 6.5 6.5 6.5 6.8 6.5 6.5 6.6 6.8 6.7 6.8 6.5 6.7 6.3 5.0 4.3 4.6 4.4 4.4 4.1 3.8 3.3 2.6 2.4 3.4 2.6 1.8 0.0 0.6 0.4 0.7 -0.0 -0.4 -0.1 0.7 4.5 3.0 1.7 -1.2 -2.3
6.5 6.5 6.5 6.5 6.5 6.5 6.7 6.6 6.5 6.6 6.8 6.9 7.0 6.9 6.9 6.7 5.9 4.9 5.6 5.0 4.9 4.7 4.1 4.0 3.8 3.5 3.0 2.2 2.6 2.3 2.3 1.9 1.2 0.3 0.4 0.0 -1.2 -2.2 -1.8 -1.3 -1.5 -2.1 -2.5 -3.6
6.5 6.5 6.5 6.5 6.5 6.6 7.1 6.9 7.3 6.2 6.4 6.1 6.4 7.2 7.1 6.9 7.1 7.1 6.0 5.5 4.9 4.1 3.6 3.7 3.5 3.4 2.7 2.7 3.0 2.3 2.7 2.5 1.6 0.4 -0.6 -1.3 -1.7 -2.7 -3.1 -2.8 -2.8 -3.3 -3.5 -3.5
6.5 6.7 6.5 6.5 6.5 6.5 6.9 7.2 7.3 7.3 6.5 6.0 6.3 5.9 5.7 5.7 6.4 6.6 6.5 5.7 4.2 3.4 3.1 3.4 3.6 3.2 2.5 2.3 2.4 2.8 3.5 3.6 2.1 0.9 0.6 -0.4 -1.2 -1.6 -1.9 -2.2 -2.3 -1.9 -2.1 -2.2
6.6 6.6 6.5 6.5 6.5 6.7 7.0 7.0 7.5 7.5 4.6 5.2 4.7 5.0 5.9 6.6 7.4 7.2 6.5 5.5 4.2 3.6 3.3 3.2 2.5 2.6 2.3 2.6 2.6 2.1 2.5 3.5 2.9 1.9 1.2 1.2 0.5 0.1 -0.1 -0.6 -0.4 -0.3 -0.5 0.1
6.9 6.5 6.5 6.5 7.1 6.9 7.0 6.6 6.4 6.5 6.9 6.2 4.0 4.7 5.3 5.0 4.6 4.4 5.0 5.5 4.9 4.1 3.4 2.7 2.2 2.4 2.5 2.5 2.3 2.3 3.2 4.3 4.4 3.3 2.6 2.3 1.9 1.8 2.2 2.0 1.5 2.1 1.6 1.6
Wind_Speed
5 7 19 18 20 19 13 11 14 6 2 6 13 21 18 13 11 11 14 16 17 18 18 10 6 3 6 10 15 18 18 17 12 9 7 7 7 6 6 7 10 14 15 12
5 19 12 11 15 15 17 20 25 14 12 11 19 28 20 17 18 20 19 18 18 17 15 12 8 5 8 11 14 16 17 18 13 10 7 6 5 4 6 7 10 16 15 17
18 28 17 11 10 17 20 23 18 17 8 10 10 29 20 18 20 18 16 18 15 13 14 15 10 9 9 12 14 16 18 18 15 14 9 4 5 3 5 6 6 10 14 17
17 27 14 9 18 15 19 11 17 15 9 11 6 12 3 9 12 9 9 5 7 9 11 14 13 11 12 11 12 14 16 17 14 12 11 10 8 8 5 6 6 6 10 12
12 5 18 23 19 15 9 10 15 16 15 10 16 8 2 4 5 1 5 5 8 10 11 12 13 11 9 13 12 14 16 16 14 15 12 9 10 6 4 4 8 8 9 10
24 14 10 19 13 20 6 6 5 3 6 8 13 12 4 9 7 7 4 6 7 12 12 12 8 5 8 10 11 14 16 14 13 15 14 14 11 8 6 6 6 5 6 7
11 22 16 9 12 13 17 12 6 7 6 9 6 11 11 7 5 8 8 6 8 12 13 12 10 1 5 9 11 12 15 12 12 14 13 11 10 11 10 9 5 7 6 7
9 8 21 16 18 12 19 17 8 9 7 7 9 9 6 12 10 9 6 7 10 14 13 13 9 3 5 9 10 12 13 11 12 13 12 9 10 7 7 7 6 7 7 9
4 6 4 10 12 16 9 16 16 2 1 3 6 6 8 8 14 8 5 10 14 14 15 17 10 2 3 8 10 11 12 12 12 13 10 8 7 7 5 7 6 6 7 9
3 6 6 0 15 12 10 17 9 6 9 7 4 3 4 12 13 10 8 12 11 12 16 17 13 6 0 5 8 9 12 13 13 12 9 7 7 6 5 6 7 6 8 13
7 3 2 5 7 19 12 11 7 9 5 10 9 5 4 1 14 10 11 11 12 14 16 16 13 6 1 5 7 8 10 11 12 11 9 9 7 6 5 5 5 7 6 11
4 4 6 12 4 1 11 21 11 11 13 7 5 5 3 6 10 10 11 11 12 16 17 16 14 10 2 5 7 8 8 9 10 10 11 9 7 7 7 6 5 6 6 7
7 3 5 5 3 5 6 4 5 15 0 14 9 5 3 7 9 9 13 9 8 14 18 16 15 13 12 0 6 7 9 10 10 10 12 10 9 8 8 8 8 6 6 6
1 4 8 2 3 1 1 3 6 5 12 16 8 7 10 8 8 9 11 10 8 10 14 16 14 11 11 12 4 4 7 9 11 12 11 12 12 11 9 8 8 8 8 9
1 2 6 14 7 1 3 2 3 2 3 13 17 13 12 11 6 9 10 9 10 9 11 11 12 10 13 13 12 9 6 8 10 11 11 11 11 11 11 9 8 8 8 8
8 3 3 3 13 6 1 0 5 3 2 4 6 4 3 4 10 9 10 11 12 10 10 12 12 11 11 12 13 13 9 8 5 10 10 10 11 11 12 12 11 10 10 9
6 7 9 5 6 7 5 2 1 2 4 3 5 4 7 11 12 9 11 11 11 9 10 10 10 10 10 11 13 13 13 10 9 7 7 9 12 12 12 12 12 13 13 11
7 9 4 6 10 3 1 5 6 2 11 7 6 10 9 12 13 13 11 11 10 10 9 10 9 10 10 9 8 9 9 11 10 11 7 6 10 11 12 13 13 13 13 13
12 3 4 3 6 4 2 4 2 1 2 1 11 11 13 13 12 12 11 11 10 10 9 8 8 8 9 12 12 8 9 10 10 11 11 10 10 8 12 13 12 10 9 9
5 5 3 4 4 2 1 6 5 3 1 2 12 11 12 8 4 2 8 11 12 12 10 8 9 10 11 12 11 11 12 10 10 11 10 10 9 10 9 12 11 9 9 7
3 1 6 6 4 6 5 12 7 2 3 6 12 9 10 4 1 7 7 10 8 8 10 9 9 9 11 12 11 11 11 12 12 12 10 10 8 7 10 7 5 7 7 8
3 3 1 2 3 6 14 8 4 3 2 4 9 4 6 13 9 9 6 7 8 8 10 10 8 9 11 12 11 11 11 11 11 11 10 10 9 7 7 8 6 7 9 10
3 1 3 4 3 4 9 7 8 6 1 4 7 9 13 12 9 8 7 8 8 9 9 9 9 9 11 11 10 10 12 12 11 10 11 12 12 11 11 8 8 7 8 7
4 6 4 3 1 2 10 7 10 10 12 11 11 11 11 12 9 9 7 7 7 8 9 9 9 11 11 12 11 10 10 9 9 9 9 9 10 9 9 7 7 6 7 7
5 6 5 5 5 6 14 14 10 11 14 13 16 14 11 11 10 8 7 6 6 7 8 9 10 10 11 11 10 11 11 8 7 8 8 9 8 10 11 11 7 7 7 9
4 4 4 3 10 3 7 13 14 12 10 9 16 12 11 10 9 8 7 7 7 8 9 9 10 9 10 10 11 11 10 8 6 7 8 7 7 8 8 10 14 26 22 24
Wind_Direction
200 217 224 208 214 232 240 244 252 248 224 266 262 268 270 271 273 265 271 272 273 269 270 268 268 267 199 186 183 178 172 171 163 157 169 190 200 188 187 195 183 188 197 197
202 234 232 209 209 218 227 244 253 261 257 272 271 271 273 268 261 261 260 265 262 262 267 272 252 211 197 191 192 176 173 165 170 171 172 183 182 192 193 200 196 203 201 197
218 242 208 208 206 215 230 235 251 253 259 254 278 279 270 259 252 260 254 250 265 278 281 282 271 222 198 198 194 180 172 167 169 175 164 130 168 150 184 199 207 211 210 204
234 255 226 199 224 209 239 219 235 237 229 251 210 280 244 299 268 234 256 340 318 316 297 275 269 230 201 201 194 180 168 166 168 166 172 177 197 198 189 203 206 198 201 199
236 258 205 222 211 187 231 194 211 222 227 254 241 269 290 244 233 224 83 20 2 347 349 302 282 259 205 177 175 176 173 169 170 177 170 175 201 194 177 192 200 194 189 184
255 282 235 221 208 211 176 136 139 147 195 241 236 224 219 220 229 143 95 59 39 25 7 1 336 218 190 172 171 182 173 175 175 179 176 186 204 211 204 211 209 193 186 172
276 235 237 230 206 194 186 175 191 208 200 238 218 202 256 244 203 147 122 76 41 29 23 10 10 214 165 173 186 185 177 169 179 183 187 191 205 219 218 213 201 168 171 167
271 273 211 225 216 192 193 187 188 209 210 235 159 221 240 244 177 137 106 64 44 28 20 13 4 174 184 178 186 179 178 167 170 179 179 181 203 215 225 207 190 178 171 163
249 255 208 211 196 172 182 199 201 156 65 188 198 231 267 148 139 140 85 48 36 27 21 16 25 66 159 195 180 177 171 163 170 181 169 171 186 205 194 189 190 161 158 154
268 269 220 135 186 231 189 188 186 220 211 208 198 209 189 176 155 147 87 62 44 37 35 31 31 44 252 174 175 180 170 169 173 175 158 168 166 185 179 166 172 161 156 154
297 247 275 151 189 202 211 196 192 198 212 217 226 224 233 259 171 145 108 85 66 53 48 40 26 24 105 153 165 160 153 166 171 176 159 150 155 167 156 149 154 165 152 163
318 320 262 241 97 58 219 213 193 197 189 217 218 198 329 152 146 136 130 116 94 73 60 45 36 19 83 146 151 147 149 174 180 170 171 158 160 162 166 149 149 154 158 160
329 331 286 211 206 55 36 24 271 244 7 220 218 224 118 139 136 142 134 114 88 78 70 56 40 22 12 248 173 164 173 182 180 176 169 157 175 180 177 172 160 155 154 153
273 310 319 38 26 331 161 297 353 226 213 221 219 163 182 179 145 127 125 110 91 71 69 58 48 29 19 12 28 188 198 201 197 190 176 165 179 189 183 172 169 167 163 165
275 321 328 346 339 141 245 341 9 31 241 208 224 222 196 195 181 144 126 114 94 71 53 57 49 31 22 14 4 4 352 215 203 197 184 181 184 190 184 178 176 169 170 174
334 287 331 264 306 313 183 269 11 9 114 72 130 163 274 203 127 133 110 108 83 59 49 41 53 28 34 7 352 352 356 356 304 209 199 193 191 188 192 187 185 180 181 174
298 342 336 295 332 308 55 274 80 320 342 334 227 148 143 126 124 111 105 93 86 70 51 48 36 35 26 12 356 341 339 349 349 231 202 193 199 196 192 191 188 191 191 184
277 317 289 297 315 71 210 30 187 109 288 263 147 136 123 109 94 74 64 84 73 63 44 39 28 21 12 22 7 323 347 8 8 19 359 208 203 198 197 195 193 193 195 190
215 266 287 320 319 296 76 55 77 151 270 77 144 129 117 112 96 63 59 63 66 60 40 35 30 28 10 10 355 357 22 23 15 10 3 353 338 223 202 197 197 191 184 189
153 247 278 333 318 314 91 322 294 207 254 129 140 134 109 48 73 63 53 49 44 43 30 16 27 24 23 11 354 6 13 24 9 358 359 337 343 326 255 199 193 184 182 175
335 349 250 265 281 292 315 317 307 287 13 117 118 111 106 124 181 97 67 57 47 43 32 18 30 32 17 8 6 19 11 10 350 355 0 358 359 333 298 213 162 148 122 112
293 314 250 201 233 256 358 331 29 321 293 152 143 160 117 118 101 91 79 65 53 41 30 23 30 26 22 15 9 14 8 353 357 4 8 7 1 14 8 56 66 86 118 117
278 232 294 242 249 342 346 313 320 270 212 4 102 115 124 122 116 101 75 52 45 37 29 21 25 23 24 18 17 15 1 358 6 18 14 14 14 19 25 39 67 81 86 100
290 252 246 283 36 23 13 10 37 47 80 73 95 98 101 103 95 83 67 49 35 27 25 15 20 28 20 11 12 9 4 4 17 32 31 29 40 37 37 43 47 71 89 98
254 284 278 239 5 307 22 16 40 50 65 68 65 71 87 101 93 93 75 54 41 27 22 23 24 20 15 11 11 7 3 9 33 42 47 47 54 58 59 55 49 66 60 98
336 344 343 9 351 49 33 19 35 37 51 65 68 59 62 75 85 86 71 52 37 27 22 27 25 20 18 19 20 14 16 28 55 63 57 51 56 61 68 76 76 65 76 83